owner,sensor,date,latitude,longitude,vertical_datum,wind_speed,wind_to_direction,wind_speed_of_gust,qcFlag 
TABS,ioos:station:wmo:42046:1,2002-08-01T10:09:00Z,27.8903,-94.0367,4.0,4.603791915,165.1489956,7.19,'11111222,11111222,11111222' 
TABS,ioos:station:wmo:42046:1,2002-08-01T10:39:00Z,27.8903,-94.0367,4.0,5.497581286,154.6937516,7.23,'11111222,11111222,11111222' 
TABS,ioos:station:wmo:42046:1,2002-08-01T11:09:00Z,27.8903,-94.0367,4.0,5.439117575,161.5653047,6.78,'11111222,11111222,11111222' 
TABS,ioos:station:wmo:42046:1,2002-08-01T11:39:00Z,27.8903,-94.0367,4.0,6.318172204,165.6120924,8.44,'11111222,11111222,11111222' 
TABS,ioos:station:wmo:42046:1,2002-08-01T14:39:00Z,27.8903,-94.0367,4.0,5.998108035,174.4512139,7.38,'11111222,11111222,11111222' 
TABS,ioos:station:wmo:42046:1,2002-08-01T15:39:00Z,27.8903,-94.0367,4.0,5.914355417,172.2263365,7.39,'11111222,11111222,11111222' 
TABS,ioos:station:wmo:42046:1,2002-08-01T17:09:00Z,27.8903,-94.0367,4.0,5.913814336,193.096462,7.76,'11111222,11111222,11111222' 
TABS,ioos:station:wmo:42046:1,2002-08-01T19:09:00Z,27.8903,-94.0367,4.0,3.810209968,180.6017174,5.22,'11111222,11111222,11111222' 
TABS,ioos:station:wmo:42046:1,2002-08-01T21:39:00Z,27.8903,-94.0367,4.0,3.644626181,227.3351389,4.78,'11111222,11111222,11111222' 
TABS,ioos:station:wmo:42046:1,2002-08-01T22:09:00Z,27.8903,-94.0367,4.0,2.471962783,257.1443961,3.44,'11111222,11111222,11111222' 
TABS,ioos:station:wmo:42046:1,2002-08-01T23:09:00Z,27.8903,-94.0367,4.0,1.655113289,265.4951037,2.96,'11111222,11111222,11111222' 
TABS,ioos:station:wmo:42046:1,2002-08-02T00:39:00Z,27.8903,-94.0367,4.0,2.014000993,261.1457125,3.7,'11111222,11111222,11111222' 
TABS,ioos:station:wmo:42046:1,2002-08-02T01:39:00Z,27.8903,-94.0367,4.0,1.730780171,247.5839049,2.83,'11111222,11111222,11111222' 
TABS,ioos:station:wmo:42046:1,2002-08-02T02:09:00Z,27.8903,-94.0367,4.0,1.349703671,239.2547226,2.6,'11111222,11111222,11111222' 
TABS,ioos:station:wmo:42046:1,2002-08-02T03:39:00Z,27.8903,-94.0367,4.0,0.984327181,200.8287175,2.37,'11111222,11111222,11111222' 
TABS,ioos:station:wmo:42046:1,2002-08-02T04:09:00Z,27.8903,-94.0367,4.0,0.98478424,147.4398486,2.18,'11111222,11111222,11111222' 
TABS,ioos:station:wmo:42046:1,2002-08-02T04:39:00Z,27.8903,-94.0367,4.0,0.411096096,94.18532726,1.89,'11111222,11111222,11111222' 
TABS,ioos:station:wmo:42046:1,2002-08-02T06:39:00Z,27.8903,-94.0367,4.0,0.728628849,313.3315612,1.94,'11111222,11111222,11111222' 
TABS,ioos:station:wmo:42046:1,2002-08-02T07:09:00Z,27.8903,-94.0367,4.0,0.260768096,94.39911599,1.54,'11111222,11111222,11111222' 
TABS,ioos:station:wmo:42046:1,2002-08-02T10:39:00Z,27.8903,-94.0367,4.0,1.865073725,115.7410691,2.65,'11111222,11111222,11111222' 
TABS,ioos:station:wmo:42046:1,2002-08-02T11:09:00Z,27.8903,-94.0367,4.0,1.996246478,148.9380803,3.08,'11111222,11111222,11111222' 
TABS,ioos:station:wmo:42046:1,2002-08-02T11:39:00Z,27.8903,-94.0367,4.0,2.776544615,161.9568406,3.7,'11111222,11111222,11111222' 
TABS,ioos:station:wmo:42046:1,2002-08-02T12:39:00Z,27.8903,-94.0367,4.0,3.2,180.0002105,5.3,'11111222,11111222,11111222' 
TABS,ioos:station:wmo:42046:1,2002-08-02T13:09:00Z,27.8903,-94.0367,4.0,3.346460817,187.2101554,5.01,'11111222,11111222,11111222' 
TABS,ioos:station:wmo:42046:1,2002-08-02T14:09:00Z,27.8903,-94.0367,4.0,2.35,180.0002105,3.64,'11111222,11111222,11111222' 
TABS,ioos:station:wmo:42046:1,2002-08-02T16:09:00Z,27.8903,-94.0367,4.0,1.456742942,174.4853118,2.13,'11111222,11111222,11111222' 
TABS,ioos:station:wmo:42046:1,2002-08-02T20:09:00Z,27.8903,-94.0367,4.0,2.786198126,276.181212,4.14,'11111222,11111222,11111222' 
TABS,ioos:station:wmo:42046:1,2002-08-02T20:39:00Z,27.8903,-94.0367,4.0,3.29006079,269.6517025,5.18,'11111222,11111222,11111222' 
TABS,ioos:station:wmo:42046:1,2002-08-02T22:09:00Z,27.8903,-94.0367,4.0,2.683020686,305.2893482,3.73,'11111222,11111222,11111222' 
TABS,ioos:station:wmo:42046:1,2002-08-03T00:39:00Z,27.8903,-94.0367,4.0,3.619419843,303.7338934,5.08,'11111222,11111222,11111222' 
TABS,ioos:station:wmo:42046:1,2002-08-03T01:09:00Z,27.8903,-94.0367,4.0,2.970151511,314.1814412,4.26,'11111222,11111222,11111222' 
TABS,ioos:station:wmo:42046:1,2002-08-03T01:39:00Z,27.8903,-94.0367,4.0,3.341870734,319.733322,4.35,'11111222,11111222,11111222' 
TABS,ioos:station:wmo:42046:1,2002-08-03T04:09:00Z,27.8903,-94.0367,4.0,2.533140344,321.4107198,3.45,'11111222,11111222,11111222' 
TABS,ioos:station:wmo:42046:1,2002-08-03T04:39:00Z,27.8903,-94.0367,4.0,2.64796148,334.499293,3.5,'11111222,11111222,11111222' 
TABS,ioos:station:wmo:42046:1,2002-08-03T06:09:00Z,27.8903,-94.0367,4.0,2.967305175,308.5692511,4.24,'11111222,11111222,11111222' 
TABS,ioos:station:wmo:42046:1,2002-08-03T06:39:00Z,27.8903,-94.0367,4.0,2.326478025,278.6525216,3.21,'11111222,11111222,11111222' 
TABS,ioos:station:wmo:42046:1,2002-08-03T07:09:00Z,27.8903,-94.0367,4.0,4.966135318,311.4897241,6.2,'11111222,11111222,11111222' 
TABS,ioos:station:wmo:42046:1,2002-08-03T07:39:00Z,27.8903,-94.0367,4.0,3.766297917,354.6676431,5.4,'11111222,11111222,11111222' 
TABS,ioos:station:wmo:42046:1,2002-08-03T08:09:00Z,27.8903,-94.0367,4.0,4.014000498,323.1014302,5.47,'11111222,11111222,11111222' 
TABS,ioos:station:wmo:42046:1,2002-08-03T08:39:00Z,27.8903,-94.0367,4.0,3.544925951,325.4580504,4.75,'11111222,11111222,11111222' 
TABS,ioos:station:wmo:42046:1,2002-08-03T09:09:00Z,27.8903,-94.0367,4.0,3.967278664,332.5305475,5.46,'11111222,11111222,11111222' 
TABS,ioos:station:wmo:42046:1,2002-08-03T09:39:00Z,27.8903,-94.0367,4.0,4.48287854,336.465606,5.69,'11111222,11111222,11111222' 
TABS,ioos:station:wmo:42046:1,2002-08-03T11:09:00Z,27.8903,-94.0367,4.0,4.165921267,328.4464222,5.41,'11111222,11111222,11111222' 
TABS,ioos:station:wmo:42046:1,2002-08-03T11:39:00Z,27.8903,-94.0367,4.0,3.200562451,1.073957028,5.14,'11111222,11111222,11111222' 
TABS,ioos:station:wmo:42046:1,2002-08-03T12:09:00Z,27.8903,-94.0367,4.0,5.174871979,317.7410949,6.39,'11111222,11111222,11111222' 
TABS,ioos:station:wmo:42046:1,2002-08-03T12:39:00Z,27.8903,-94.0367,4.0,2.552273496,275.6212299,3.61,'11111222,11111222,11111222' 
TABS,ioos:station:wmo:42046:1,2002-08-03T15:09:00Z,27.8903,-94.0367,4.0,6.25721983,317.5906907,8.0,'11111222,11111222,11111222' 
TABS,ioos:station:wmo:42046:1,2002-08-03T15:39:00Z,27.8903,-94.0367,4.0,6.182920022,321.3690162,7.71,'11111222,11111222,11111222' 
TABS,ioos:station:wmo:42046:1,2002-08-03T16:39:00Z,27.8903,-94.0367,4.0,7.761237015,351.702664,11.73,'11111222,11111222,11111222' 
TABS,ioos:station:wmo:42046:1,2002-08-03T17:09:00Z,27.8903,-94.0367,4.0,4.55,270.0,11.26,'11111222,11111222,11111222' 
TABS,ioos:station:wmo:42046:1,2002-08-03T18:39:00Z,27.8903,-94.0367,4.0,6.414265352,152.3166201,9.78,'11111222,11111222,11111222' 
TABS,ioos:station:wmo:42046:1,2002-08-03T19:39:00Z,27.8903,-94.0367,4.0,1.824965753,303.6029134,4.31,'11111222,11111222,11111222' 
TABS,ioos:station:wmo:42046:1,2002-08-03T20:09:00Z,27.8903,-94.0367,4.0,3.440523216,192.4206114,6.16,'11111222,11111222,11111222' 
TABS,ioos:station:wmo:42046:1,2002-08-03T20:39:00Z,27.8903,-94.0367,4.0,6.090820963,248.3209186,8.23,'11111222,11111222,11111222' 
TABS,ioos:station:wmo:42046:1,2002-08-03T21:39:00Z,27.8903,-94.0367,4.0,6.401976257,265.2512341,8.09,'11111222,11111222,11111222' 
TABS,ioos:station:wmo:42046:1,2002-08-03T22:09:00Z,27.8903,-94.0367,4.0,5.976160975,292.5313133,7.46,'11111222,11111222,11111222' 
TABS,ioos:station:wmo:42046:1,2002-08-03T23:09:00Z,27.8903,-94.0367,4.0,4.494941601,336.1150105,5.72,'11111222,11111222,11111222' 
TABS,ioos:station:wmo:42046:1,2002-08-04T00:09:00Z,27.8903,-94.0367,4.0,4.564832965,357.3630373,6.21,'11111222,11111222,11111222' 
TABS,ioos:station:wmo:42046:1,2002-08-04T00:39:00Z,27.8903,-94.0367,4.0,6.737314005,351.8937598,8.08,'11111222,11111222,11111222' 
TABS,ioos:station:wmo:42046:1,2002-08-04T02:39:00Z,27.8903,-94.0367,4.0,6.033324125,5.039446532,7.55,'11111222,11111222,11111222' 
TABS,ioos:station:wmo:42046:1,2002-08-04T03:09:00Z,27.8903,-94.0367,4.0,5.129775824,5.032411757,6.31,'11111222,11111222,11111222' 
TABS,ioos:station:wmo:42046:1,2002-08-04T03:39:00Z,27.8903,-94.0367,4.0,6.278638387,7.136108005,7.69,'11111222,11111222,11111222' 
TABS,ioos:station:wmo:42046:1,2002-08-04T04:09:00Z,27.8903,-94.0367,4.0,5.638412897,18.72390245,7.23,'11111222,11111222,11111222' 
TABS,ioos:station:wmo:42046:1,2002-08-04T04:39:00Z,27.8903,-94.0367,4.0,5.112885682,16.59165943,6.8,'11111222,11111222,11111222' 
TABS,ioos:station:wmo:42046:1,2002-08-04T05:09:00Z,27.8903,-94.0367,4.0,5.881776942,13.46896901,7.66,'11111222,11111222,11111222' 
TABS,ioos:station:wmo:42046:1,2002-08-04T06:09:00Z,27.8903,-94.0367,4.0,5.29808456,34.61962597,7.4,'11111222,11111222,11111222' 
TABS,ioos:station:wmo:42046:1,2002-08-04T06:39:00Z,27.8903,-94.0367,4.0,8.890539916,69.17958333,12.53,'11111222,11111222,11111222' 
TABS,ioos:station:wmo:42046:1,2002-08-04T07:39:00Z,27.8903,-94.0367,4.0,3.628512092,57.49213068,5.21,'11111222,11111222,11111222' 
TABS,ioos:station:wmo:42046:1,2002-08-04T08:39:00Z,27.8903,-94.0367,4.0,5.168994099,44.76454618,6.35,'11111222,11111222,11111222' 
TABS,ioos:station:wmo:42046:1,2002-08-04T09:39:00Z,27.8903,-94.0367,4.0,4.352585439,34.89467158,6.04,'11111222,11111222,11111222' 
TABS,ioos:station:wmo:42046:1,2002-08-04T10:39:00Z,27.8903,-94.0367,4.0,5.519574259,34.29438326,6.71,'11111222,11111222,11111222' 
TABS,ioos:station:wmo:42046:1,2002-08-04T11:39:00Z,27.8903,-94.0367,4.0,5.204584518,36.01089118,6.43,'11111222,11111222,11111222' 
TABS,ioos:station:wmo:42046:1,2002-08-04T12:09:00Z,27.8903,-94.0367,4.0,4.790918492,42.71583938,6.67,'11111222,11111222,11111222' 
TABS,ioos:station:wmo:42046:1,2002-08-04T13:09:00Z,27.8903,-94.0367,4.0,4.582597517,45.88380619,5.68,'11111222,11111222,11111222' 
TABS,ioos:station:wmo:42046:1,2002-08-04T14:09:00Z,27.8903,-94.0367,4.0,5.808485173,43.11609712,7.32,'11111222,11111222,11111222' 
TABS,ioos:station:wmo:42046:1,2002-08-04T15:09:00Z,27.8903,-94.0367,4.0,6.564586811,39.4364885,8.42,'11111222,11111222,11111222' 
TABS,ioos:station:wmo:42046:1,2002-08-04T15:39:00Z,27.8903,-94.0367,4.0,6.121454076,39.69741141,8.33,'11111222,11111222,11111222' 
TABS,ioos:station:wmo:42046:1,2002-08-04T16:09:00Z,27.8903,-94.0367,4.0,7.063780857,42.47525857,9.03,'11111222,11111222,11111222' 
TABS,ioos:station:wmo:42046:1,2002-08-04T17:09:00Z,27.8903,-94.0367,4.0,6.517706652,42.69914195,8.09,'11111222,11111222,11111222' 
TABS,ioos:station:wmo:42046:1,2002-08-04T18:09:00Z,27.8903,-94.0367,4.0,5.940117844,44.31762551,7.92,'11111222,11111222,11111222' 
TABS,ioos:station:wmo:42046:1,2002-08-04T20:39:00Z,27.8903,-94.0367,4.0,6.462197769,68.19822058,8.17,'11111222,11111222,11111222' 
TABS,ioos:station:wmo:42046:1,2002-08-04T22:09:00Z,27.8903,-94.0367,4.0,5.323692328,75.75454696,7.06,'11111222,11111222,11111222' 
TABS,ioos:station:wmo:42046:1,2002-08-05T02:09:00Z,27.8903,-94.0367,4.0,4.628714724,42.54815688,7.02,'11111222,11111222,11111222' 
TABS,ioos:station:wmo:42046:1,2002-08-05T02:39:00Z,27.8903,-94.0367,4.0,3.683829529,58.76915738,5.77,'11111222,11111222,11111222' 
TABS,ioos:station:wmo:42046:1,2002-08-05T03:39:00Z,27.8903,-94.0367,4.0,2.378108492,71.10753696,4.3,'11111222,11111222,11111222' 
TABS,ioos:station:wmo:42046:1,2002-08-05T07:09:00Z,27.8903,-94.0367,4.0,2.616639066,134.0712785,4.3,'11111222,11111222,11111222' 
TABS,ioos:station:wmo:42046:1,2002-08-05T08:09:00Z,27.8903,-94.0367,4.0,2.500179994,152.6153039,3.52,'11111222,11111222,11111222' 
TABS,ioos:station:wmo:42046:1,2002-08-05T09:09:00Z,27.8903,-94.0367,4.0,2.256413083,184.3210053,3.16,'11111222,11111222,11111222' 
TABS,ioos:station:wmo:42046:1,2002-08-05T11:09:00Z,27.8903,-94.0367,4.0,1.596151622,233.9199282,2.7,'11111222,11111222,11111222' 
TABS,ioos:station:wmo:42046:1,2002-08-05T12:09:00Z,27.8903,-94.0367,4.0,2.948219802,306.1701708,4.34,'11111222,11111222,11111222' 
TABS,ioos:station:wmo:42046:1,2002-08-05T12:39:00Z,27.8903,-94.0367,4.0,5.062904305,351.7096629,6.51,'11111222,11111222,11111222' 
TABS,ioos:station:wmo:42046:1,2002-08-05T13:09:00Z,27.8903,-94.0367,4.0,3.289559241,7.686493248,5.49,'11111222,11111222,11111222' 
TABS,ioos:station:wmo:42046:1,2002-08-05T14:39:00Z,27.8903,-94.0367,4.0,4.892903024,342.6388199,6.29,'11111222,11111222,11111222' 
TABS,ioos:station:wmo:42046:1,2002-08-05T15:09:00Z,27.8903,-94.0367,4.0,5.027444679,344.3049021,6.36,'11111222,11111222,11111222' 
TABS,ioos:station:wmo:42046:1,2002-08-05T16:09:00Z,27.8903,-94.0367,4.0,4.355421908,342.7713676,5.73,'11111222,11111222,11111222' 
TABS,ioos:station:wmo:42046:1,2002-08-05T16:39:00Z,27.8903,-94.0367,4.0,4.937053777,352.0830663,6.2,'11111222,11111222,11111222' 
TABS,ioos:station:wmo:42046:1,2002-08-05T17:09:00Z,27.8903,-94.0367,4.0,4.542158077,342.8414557,6.0,'11111222,11111222,11111222' 
TABS,ioos:station:wmo:42046:1,2002-08-05T17:39:00Z,27.8903,-94.0367,4.0,4.280770959,329.541102,5.18,'11111222,11111222,11111222' 
TABS,ioos:station:wmo:42046:1,2002-08-05T18:09:00Z,27.8903,-94.0367,4.0,4.022996396,335.4733844,5.07,'11111222,11111222,11111222' 
TABS,ioos:station:wmo:42046:1,2002-08-05T18:39:00Z,27.8903,-94.0367,4.0,3.743220539,343.5498218,5.37,'11111222,11111222,11111222' 
TABS,ioos:station:wmo:42046:1,2002-08-05T19:09:00Z,27.8903,-94.0367,4.0,3.977700341,331.6308096,5.11,'11111222,11111222,11111222' 
TABS,ioos:station:wmo:42046:1,2002-08-05T21:09:00Z,27.8903,-94.0367,4.0,3.279420681,331.7937643,4.6,'11111222,11111222,11111222' 
TABS,ioos:station:wmo:42046:1,2002-08-05T22:09:00Z,27.8903,-94.0367,4.0,3.606729821,318.7093522,4.63,'11111222,11111222,11111222' 
TABS,ioos:station:wmo:42046:1,2002-08-05T22:39:00Z,27.8903,-94.0367,4.0,3.197811752,338.7307794,4.05,'11111222,11111222,11111222' 
TABS,ioos:station:wmo:42046:1,2002-08-06T01:09:00Z,27.8903,-94.0367,4.0,1.674425275,15.94514816,2.4,'11111222,11111222,11111222' 
TABS,ioos:station:wmo:42046:1,2002-08-06T01:39:00Z,27.8903,-94.0367,4.0,1.462771342,3.527249343,2.32,'11111222,11111222,11111222' 
TABS,ioos:station:wmo:42046:1,2002-08-06T03:09:00Z,27.8903,-94.0367,4.0,0.730273921,181.5695616,2.05,'11111222,11111222,11111222' 
TABS,ioos:station:wmo:42046:1,2002-08-06T04:09:00Z,27.8903,-94.0367,4.0,0.75133215,170.0364296,2.5,'11111222,11111222,11111222' 
TABS,ioos:station:wmo:42046:1,2002-08-06T06:39:00Z,27.8903,-94.0367,4.0,2.486764967,191.1293737,3.44,'11111222,11111222,11111222' 
TABS,ioos:station:wmo:42046:1,2002-08-06T07:09:00Z,27.8903,-94.0367,4.0,2.620686933,190.1094853,3.86,'11111222,11111222,11111222' 
TABS,ioos:station:wmo:42046:1,2002-08-06T09:09:00Z,27.8903,-94.0367,4.0,5.144880951,236.0938023,6.29,'11111222,11111222,11111222' 
TABS,ioos:station:wmo:42046:1,2002-08-06T10:39:00Z,27.8903,-94.0367,4.0,5.124890243,256.3434047,6.52,'11111222,11111222,11111222' 
TABS,ioos:station:wmo:42046:1,2002-08-06T11:09:00Z,27.8903,-94.0367,4.0,5.962424004,263.161059,7.28,'11111222,11111222,11111222' 
TABS,ioos:station:wmo:42046:1,2002-08-06T12:09:00Z,27.8903,-94.0367,4.0,5.975215477,253.8702422,7.34,'11111222,11111222,11111222' 
TABS,ioos:station:wmo:42046:1,2002-08-06T12:39:00Z,27.8903,-94.0367,4.0,5.525115383,256.3913609,6.74,'11111222,11111222,11111222' 
TABS,ioos:station:wmo:42046:1,2002-08-06T14:39:00Z,27.8903,-94.0367,4.0,3.973965274,247.8238155,6.06,'11111222,11111222,11111222' 
TABS,ioos:station:wmo:42046:1,2002-08-06T15:09:00Z,27.8903,-94.0367,4.0,4.67248328,263.2400327,5.95,'11111222,11111222,11111222' 
TABS,ioos:station:wmo:42046:1,2002-08-06T15:39:00Z,27.8903,-94.0367,4.0,5.662199219,258.074889,7.47,'11111222,11111222,11111222' 
TABS,ioos:station:wmo:42046:1,2002-08-06T16:09:00Z,27.8903,-94.0367,4.0,5.907148212,259.0705376,7.21,'11111222,11111222,11111222' 
TABS,ioos:station:wmo:42046:1,2002-08-06T17:39:00Z,27.8903,-94.0367,4.0,5.600446411,290.3763876,7.02,'11111222,11111222,11111222' 
TABS,ioos:station:wmo:42046:1,2002-08-06T18:09:00Z,27.8903,-94.0367,4.0,5.745624422,290.2642109,7.3,'11111222,11111222,11111222' 
TABS,ioos:station:wmo:42046:1,2002-08-06T18:39:00Z,27.8903,-94.0367,4.0,5.473947387,288.2032088,7.33,'11111222,11111222,11111222' 
TABS,ioos:station:wmo:42046:1,2002-08-06T20:09:00Z,27.8903,-94.0367,4.0,4.847844882,293.0743855,6.34,'11111222,11111222,11111222' 
TABS,ioos:station:wmo:42046:1,2002-08-06T20:39:00Z,27.8903,-94.0367,4.0,5.1523975,295.7692674,6.7,'11111222,11111222,11111222' 
TABS,ioos:station:wmo:42046:1,2002-08-06T21:39:00Z,27.8903,-94.0367,4.0,4.772305522,295.7058873,6.17,'11111222,11111222,11111222' 
TABS,ioos:station:wmo:42046:1,2002-08-06T22:39:00Z,27.8903,-94.0367,4.0,4.931216888,313.1099065,6.47,'11111222,11111222,11111222' 
TABS,ioos:station:wmo:42046:1,2002-08-06T23:09:00Z,27.8903,-94.0367,4.0,4.945321021,291.2204612,6.2,'11111222,11111222,11111222' 
TABS,ioos:station:wmo:42046:1,2002-08-07T00:09:00Z,27.8903,-94.0367,4.0,4.012405762,297.7784277,5.48,'11111222,11111222,11111222' 
TABS,ioos:station:wmo:42046:1,2002-08-07T00:39:00Z,27.8903,-94.0367,4.0,3.422995764,280.0952233,4.9,'11111222,11111222,11111222' 
TABS,ioos:station:wmo:42046:1,2002-08-07T01:09:00Z,27.8903,-94.0367,4.0,2.780647407,271.2364047,4.24,'11111222,11111222,11111222' 
TABS,ioos:station:wmo:42046:1,2002-08-07T02:09:00Z,27.8903,-94.0367,4.0,3.276171546,247.1918489,5.18,'11111222,11111222,11111222' 
TABS,ioos:station:wmo:42046:1,2002-08-07T02:39:00Z,27.8903,-94.0367,4.0,2.948847232,248.3068825,5.05,'11111222,11111222,11111222' 
TABS,ioos:station:wmo:42046:1,2002-08-07T03:39:00Z,27.8903,-94.0367,4.0,3.303346788,241.0296973,5.45,'11111222,11111222,11111222' 
TABS,ioos:station:wmo:42046:1,2002-08-07T04:09:00Z,27.8903,-94.0367,4.0,3.316986584,249.1609639,5.88,'11111222,11111222,11111222' 
TABS,ioos:station:wmo:42046:1,2002-08-07T04:39:00Z,27.8903,-94.0367,4.0,3.766297917,238.462335,5.89,'11111222,11111222,11111222' 
TABS,ioos:station:wmo:42046:1,2002-08-07T06:39:00Z,27.8903,-94.0367,4.0,4.470984232,246.8182906,6.16,'11111222,11111222,11111222' 
TABS,ioos:station:wmo:42046:1,2002-08-07T07:39:00Z,27.8903,-94.0367,4.0,7.674874592,246.9092912,9.36,'11111222,11111222,11111222' 
TABS,ioos:station:wmo:42046:1,2002-08-07T08:09:00Z,27.8903,-94.0367,4.0,5.357172762,263.2464418,9.12,'11111222,11111222,11111222' 
TABS,ioos:station:wmo:42046:1,2002-08-07T08:39:00Z,27.8903,-94.0367,4.0,5.696683246,259.9920436,9.4,'11111222,11111222,11111222' 
TABS,ioos:station:wmo:42046:1,2002-08-07T12:09:00Z,27.8903,-94.0367,4.0,9.451021109,266.1778688,12.59,'11111222,11111222,11111222' 
TABS,ioos:station:wmo:42046:1,2002-08-07T12:39:00Z,27.8903,-94.0367,4.0,8.942706525,271.4096754,11.61,'11111222,11111222,11111222' 
TABS,ioos:station:wmo:42046:1,2002-08-07T13:39:00Z,27.8903,-94.0367,4.0,8.74396935,6.368910963,13.56,'11111222,11111222,11111222' 
TABS,ioos:station:wmo:42046:1,2002-08-07T15:39:00Z,27.8903,-94.0367,4.0,8.270870571,270.8313174,11.75,'11111222,11111222,11111222' 
TABS,ioos:station:wmo:42046:1,2002-08-07T16:09:00Z,27.8903,-94.0367,4.0,6.767045145,265.9324899,10.65,'11111222,11111222,11111222' 
TABS,ioos:station:wmo:42046:1,2002-08-07T18:09:00Z,27.8903,-94.0367,4.0,8.62593763,290.4938038,11.72,'11111222,11111222,11111222' 
TABS,ioos:station:wmo:42046:1,2002-08-07T18:39:00Z,27.8903,-94.0367,4.0,7.166268206,306.3741037,9.98,'11111222,11111222,11111222' 
TABS,ioos:station:wmo:42046:1,2002-08-07T20:09:00Z,27.8903,-94.0367,4.0,7.517140414,317.5877672,9.91,'11111222,11111222,11111222' 
TABS,ioos:station:wmo:42046:1,2002-08-07T21:39:00Z,27.8903,-94.0367,4.0,6.598674109,316.1665259,8.97,'11111222,11111222,11111222' 
TABS,ioos:station:wmo:42046:1,2002-08-07T22:09:00Z,27.8903,-94.0367,4.0,5.387169943,302.5690018,7.58,'11111222,11111222,11111222' 
TABS,ioos:station:wmo:42046:1,2002-08-07T22:39:00Z,27.8903,-94.0367,4.0,6.255189845,319.4085249,8.49,'11111222,11111222,11111222' 
TABS,ioos:station:wmo:42046:1,2002-08-08T00:09:00Z,27.8903,-94.0367,4.0,2.895600111,303.3058283,5.32,'11111222,11111222,11111222' 
TABS,ioos:station:wmo:42046:1,2002-08-08T00:39:00Z,27.8903,-94.0367,4.0,5.430377519,320.8292526,7.36,'11111222,11111222,11111222' 
TABS,ioos:station:wmo:42046:1,2002-08-08T01:09:00Z,27.8903,-94.0367,4.0,5.6944271,319.3440226,7.4,'11111222,11111222,11111222' 
TABS,ioos:station:wmo:42046:1,2002-08-08T05:09:00Z,27.8903,-94.0367,4.0,2.155945268,175.7441937,4.76,'11111222,11111222,11111222' 
TABS,ioos:station:wmo:42046:1,2002-08-08T05:39:00Z,27.8903,-94.0367,4.0,2.758622845,136.469113,4.78,'11111222,11111222,11111222' 
TABS,ioos:station:wmo:42046:1,2002-08-08T09:39:00Z,27.8903,-94.0367,4.0,6.008935014,189.8700787,7.7,'11111222,11111222,11111222' 
TABS,ioos:station:wmo:42046:1,2002-08-08T10:09:00Z,27.8903,-94.0367,4.0,3.717324307,156.5385735,5.7,'11111222,11111222,11111222' 
TABS,ioos:station:wmo:42046:1,2002-08-08T17:09:00Z,27.8903,-94.0367,4.0,3.998024512,217.0706561,5.37,'11111222,11111222,11111222' 
TABS,ioos:station:wmo:42046:1,2002-08-08T18:09:00Z,27.8903,-94.0367,4.0,3.315674894,237.9397406,4.37,'11111222,11111222,11111222' 
TABS,ioos:station:wmo:42046:1,2002-08-08T19:09:00Z,27.8903,-94.0367,4.0,2.760036232,227.3493784,3.99,'11111222,11111222,11111222' 
TABS,ioos:station:wmo:42046:1,2002-08-08T21:09:00Z,27.8903,-94.0367,4.0,2.34437625,232.10367,4.13,'11111222,11111222,11111222' 
TABS,ioos:station:wmo:42046:1,2002-08-08T21:39:00Z,27.8903,-94.0367,4.0,1.590282994,305.7888898,2.61,'11111222,11111222,11111222' 
TABS,ioos:station:wmo:42046:1,2002-08-08T22:09:00Z,27.8903,-94.0367,4.0,0.941912947,356.3475753,3.11,'11111222,11111222,11111222' 
TABS,ioos:station:wmo:42046:1,2002-08-08T23:39:00Z,27.8903,-94.0367,4.0,2.984024129,127.1006425,4.09,'11111222,11111222,11111222' 
TABS,ioos:station:wmo:42046:1,2002-08-09T00:09:00Z,27.8903,-94.0367,4.0,3.228869771,138.0130961,4.81,'11111222,11111222,11111222' 
TABS,ioos:station:wmo:42046:1,2002-08-09T01:09:00Z,27.8903,-94.0367,4.0,2.658589852,166.9571643,4.05,'11111222,11111222,11111222' 
TABS,ioos:station:wmo:42046:1,2002-08-09T04:09:00Z,27.8903,-94.0367,4.0,6.288561044,105.4952333,7.88,'11111222,11111222,11111222' 
TABS,ioos:station:wmo:42046:1,2002-08-09T04:39:00Z,27.8903,-94.0367,4.0,6.320268982,102.5193665,7.87,'11111222,11111222,11111222' 
TABS,ioos:station:wmo:42046:1,2002-08-09T05:39:00Z,27.8903,-94.0367,4.0,6.547136779,109.5423511,7.74,'11111222,11111222,11111222' 
TABS,ioos:station:wmo:42046:1,2002-08-09T08:39:00Z,27.8903,-94.0367,4.0,4.938339802,125.1064182,6.62,'11111222,11111222,11111222' 
TABS,ioos:station:wmo:42046:1,2002-08-09T09:09:00Z,27.8903,-94.0367,4.0,4.756574398,129.8830128,6.24,'11111222,11111222,11111222' 
TABS,ioos:station:wmo:42046:1,2002-08-09T09:39:00Z,27.8903,-94.0367,4.0,4.993485756,129.5561503,6.31,'11111222,11111222,11111222' 
TABS,ioos:station:wmo:42046:1,2002-08-09T10:09:00Z,27.8903,-94.0367,4.0,4.487159458,125.5677025,5.75,'11111222,11111222,11111222' 
TABS,ioos:station:wmo:42046:1,2002-08-09T11:39:00Z,27.8903,-94.0367,4.0,3.103449693,138.6580738,4.09,'11111222,11111222,11111222' 
TABS,ioos:station:wmo:42046:1,2002-08-09T12:09:00Z,27.8903,-94.0367,4.0,4.700478699,159.0590143,5.76,'11111222,11111222,11111222' 
TABS,ioos:station:wmo:42046:1,2002-08-09T12:39:00Z,27.8903,-94.0367,4.0,3.993657472,153.6918631,4.72,'11111222,11111222,11111222' 
TABS,ioos:station:wmo:42046:1,2002-08-09T13:39:00Z,27.8903,-94.0367,4.0,3.015327511,172.5688199,3.9,'11111222,11111222,11111222' 
TABS,ioos:station:wmo:42046:1,2002-08-09T14:09:00Z,27.8903,-94.0367,4.0,2.488533705,166.5224192,3.92,'11111222,11111222,11111222' 
TABS,ioos:station:wmo:42046:1,2002-08-09T16:09:00Z,27.8903,-94.0367,4.0,4.36285457,134.9074541,5.26,'11111222,11111222,11111222' 
TABS,ioos:station:wmo:42046:1,2002-08-09T17:09:00Z,27.8903,-94.0367,4.0,1.520855023,194.8587902,2.45,'11111222,11111222,11111222' 
TABS,ioos:station:wmo:42046:1,2002-08-09T17:39:00Z,27.8903,-94.0367,4.0,1.06282642,199.7990405,2.53,'11111222,11111222,11111222' 
TABS,ioos:station:wmo:42046:1,2002-08-09T18:39:00Z,27.8903,-94.0367,4.0,1.78089865,147.3810437,2.81,'11111222,11111222,11111222' 